[Iaude] MPEC T20: 2023 TG [a=1.38,e=0.32,i=5.6,H=28.1]

mpec at marsden.cfa.harvard.edu mpec at marsden.cfa.harvard.edu
Wed Oct 4 20:59:47 EDT 2023


M.P.E.C. 2023-T20                               Issued 2023 October 5, 00:58 UT

     The Minor Planet Electronic Circulars contain information on unusual
         minor planets, routine data on comets and natural satellites,
         and occasional editorial announcements.  They are published
    on behalf of Division F of the International Astronomical Union by the
          Minor Planet Center, Smithsonian Astrophysical Observatory,
                          Cambridge, MA 02138, U.S.A.
			  
             Prepared using the Tamkin Foundation Computer Network

                              MPC at CFA.HARVARD.EDU
            URL https://www.minorplanetcenter.net/    ISSN 1523-6714

                                    2023 TG                                     


Observations:
     K23T00G 1C2023 10 03.29989 23 45 55.61 +20 59 27.7          19.6 GVET020703
     K23T00G 1C2023 10 03.30543 23 46 03.13 +20 59 34.4          21.1 GVET020703
     K23T00G*1C2023 10 04.28412900 23 37.208+21 21 53.86         18.93GVET020703
     K23T00G 1C2023 10 04.29501500 24 08.233+21 21 58.79         18.72GVET020703
     K23T00G 1C2023 10 04.30036400 24 23.504+21 22 01.81         19.10GVET020703
     K23T00G mC2023 10 04.32556500 25 36.782+21 22 05.70         18.45GVET020I52
     K23T00G mC2023 10 04.32575800 25 37.348+21 22 05.70         18.54GVET020I52
     K23T00G mC2023 10 04.32595000 25 37.931+21 22 05.77         18.59GVET020I52
     K23T00G mC2023 10 04.32614300 25 38.485+21 22 05.77         18.56GVET020I52
     K23T00G  C2023 10 04.33168400 25 51.702+21 21 35.54         18.4 GVET020H01
     K23T00G  C2023 10 04.33579300 25 34.45 +21 35 25.8                WET020X09
     K23T00G  C2023 10 04.33781900 26 09.902+21 21 34.08         18.4 GVET020H01
     K23T00G  C2023 10 04.34047400 25 48.90 +21 35 20.7                WET020X09
     K23T00G  C2023 10 04.34359600 26 27.208+21 21 32.19         18.1 GVET020H01
     K23T00G  C2023 10 04.35379500 26 57.983+21 21 27.64         18.5 GVET020H01
     K23T00G mC2023 10 04.43859300 31 29.989+21 20 33.54         18.36GVET020I52
     K23T00G mC2023 10 04.43877500 31 30.601+21 20 33.14         18.63GVET020I52
     K23T00G mC2023 10 04.43895600 31 31.199+21 20 32.71         18.46GVET020I52
     K23T00G mC2023 10 04.43913900 31 31.811+21 20 32.60         18.52GVET020I52
     K23T00G KC2023 10 04.77525 00 56 23.14 +21 09 57.1          18.4 GVET020C82
     K23T00G KC2023 10 04.78203 00 56 54.47 +21 09 49.7                VET020C82
     K23T00G KC2023 10 04.80073000 58 20.33 +21 08 13.1          18.0 GVET020104
     K23T00G KC2023 10 04.80516 00 58 32.38 +21 07 18.6          17.8 GXET020G02
     K23T00G KC2023 10 04.80604600 58 45.38 +21 08 06.0          17.9 GVET020104
     K23T00G KC2023 10 04.80777 00 58 44.63 +21 07 13.3          17.5 GXET020G02
     K23T00G KC2023 10 04.80870400 58 57.87 +21 08 01.6          18.0 GVET020104
     K23T00G KC2023 10 04.83504401 01 09.89 +21 06 28.6          18.1 GXET020958
     K23T00G KC2023 10 04.84018701 01 34.76 +21 06 18.5          18.4 GXET020958
     K23T00G KC2023 10 04.84532701 01 59.71 +21 06 08.6          18.4 GXET020958
     K23T00G KB2023 10 04.88266901 04 49.946+21 03 33.19         17.8 GXET020K74
     K23T00G KB2023 10 04.88474701 05 11.96 +21 04 24.0          18.7 GVET020I93
     K23T00G KB2023 10 04.88551401 05 04.008+21 03 24.44         17.5 GXET020K74
     K23T00G KB2023 10 04.88700001 05 23.15 +21 04 17.7          18.3 GVET020I93
     K23T00G KB2023 10 04.88835901 05 18.086+21 03 15.26         17.1 GXET020K74
     K23T00G KB2023 10 04.88918001 05 33.98 +21 04 11.7          17.9 GVET020I93
     K23T00G KB2023 10 04.89135801 05 44.80 +21 04 05.4          17.9 GVET020I93
     K23T00G 1C2023 10 04.97818 01 12 26.99 +20 57 53.1          18.7 GVET020C40
     K23T00G 1C2023 10 04.98087 01 12 41.23 +20 57 36.6          18.7 GVET020C40
     K23T00G 1C2023 10 04.98356 01 12 55.59 +20 57 18.7          19.0 GVET020C40
     K23T00G 1C2023 10 04.99433 01 13 53.19 +20 56 08.2          18.3 GVET020C40
     K23T00G 1C2023 10 04.99731 01 14 09.32 +20 55 48.3          18.1 GVET020C40
     K23T00G 1C2023 10 05.00027 01 14 25.21 +20 55 27.9          18.9 GVET020C40
     K23T00G hC2023 10 05.02519301 17 06.60 +20 53 32.7          17.8 GVET020L01
     K23T00G hC2023 10 05.02598101 17 10.96 +20 53 27.3          17.9 GVET020L01
     K23T00G hC2023 10 05.02677001 17 15.30 +20 53 22.0          17.9 GVET020L01
     K23T00G hC2023 10 05.02755901 17 19.64 +20 53 16.5          18.0 GVET020L01
     K23T00G hC2023 10 05.02835101 17 24.04 +20 53 10.8          18.1 GVET020L01

Observer details:
104 San Marcello Pistoiese.  Observers P. Bacci, M. Maestripieri.  Measurers
    P. Bacci, L. Tesi, G. Fagioli.  0.60-m F4 Reflector + CCD.
703 Catalina Sky Survey.  Observer D. Rankin.  Measurers B. Gray, D. Rankin,
    F. C. Shelly, E. C. Beshore, D. Fay, J. B. Fazekas, D. C. Fuls, A. R.
    Gibbs, A. D. Grauer, H. Groeller, J. K. Hogan, R. A. Kowalski, S. M.
    Larson, G. J. Leonard, R. L. Seaman, K. W. Wierzchos.  0.68-m Schmidt +
    10K CCD.
958 Observatoire de Dax.  Observers P. Dupouy, J. B. de Vanssay.  Measurer P.
    Dupouy.  0.43-m f/2.7 Reflector + CCD.
C40 Kuban State University Astrophysical Observatory.  Observers A. Ivanov, A.
    Barcov, V. Ivanov, V. Lysenko, N. Yakovenko, N. Ivanova, N. Gorbunov, G.
    Kurbatov, P. Shchukin, V. Roshchupko.  Measurer A. Ivanov.  0.51-m f/8
    reflector + CCD.
C82 Osservatorio Astronomico Nastro Verde, Sorrento.  Observer N. Ruocco.
    0.35-m f/6.3  Schmidt-Cassegrain + CCD.
G02 KYSUCE Observatory, Kysucke Nove Mesto.  Observer M. Urbanik.  0.40-m
    f/6.8 Corrected Dall-Kirkham + CCD.
H01 Magdalena Ridge Observatory, Socorro.  Observers W. H. Ryan, E. V. Ryan.
    Measurer W. H. Ryan.  2.4-m f/8.9 Ritchey-Chretien + CCD.
I52 Steward Observatory, Mt. Lemmon Station.  Observer D. Rankin.  Measurers
    E. C. Beshore, D. Fay, J. B. Fazekas, D. C. Fuls, A. R. Gibbs, A. D.
    Grauer, H. Groeller, J. K. Hogan, R. A. Kowalski, S. M. Larson, G. J.
    Leonard, D. Rankin, R. L. Seaman, F. C. Shelly, K. W. Wierzchos.  1.0-m
    prime focus + CCD.
I93 St Pardon de Conques.  Observer F. Losse.  0.40-m f/3.7 reflector + CMO.
K74 Muensterschwarzach Observatory, Schwarzach.  Observer C. Gerhard.  0.30-m
    f/3.75 reflector + CMO.
L01 Visnjan Observatory, Tican.  Observer K. Korlevic.  1.0-m f/2.9 reflector
    + CCD.
X09 Deep Random Survey, Rio Hurtado.  Observers A. Schnabel, D. Ruhela.
    Measurers D. Ruhela, S. Deen.  0.43-m reflector + CMOS.

Orbital elements:
2023 TG                                                  Earth MOID = 0.0020 AU
Epoch 2023 Sept. 13.0 TT = JDT 2460200.5                Veres                   
M 323.37332              (2000.0)            P               Q                  
n   0.61033319     Peri.  224.41507     +0.55182540     -0.83370917             
a   1.3764424      Node   192.14045     +0.78964880     +0.53023068             
e   0.3211268      Incl.    5.57706     +0.26822285     +0.15422205             
P   1.61           H   28.16          G   0.15           U   6                  
Residuals in seconds of arc
231003 703  1.4+  0.8+    231004 I52  0.5+  0.1+    231004 I93  0.6-  0.1+
231003 703  1.0-  0.2-    231004 I52  0.3+  0.0     231004 K74  0.4-  0.2+
231004 703  0.2+  0.1+    231004 I52  0.4+  0.2+    231004 I93  0.7-  0.3+
231004 703  0.4+  0.6-    231004 C82  0.2+  0.1+    231004 I93  0.9-  0.2+
231004 703  0.5-  0.3+    231004 C82  0.0   0.1-    231004 C40  0.4-  0.2+
231004 I52  0.0   0.0     231004 104  0.1-  0.8-    231004 C40  0.5-  0.6+
231004 I52  0.1-  0.0     231004 G02  1.2+  0.3+    231004 C40  0.5+  0.1-
231004 I52  0.2+  0.0     231004 104  0.7+  0.1+    231004 C40  0.4+  0.0
231004 I52  0.0   0.0     231004 G02  1.5+  0.2-    231004 C40  1.4+  0.2+
231004 H01  0.6+  0.0     231004 104  0.3+  0.2-    231005 C40  0.2-  0.0
231004 X09  3.5+  1.5-    231004 958  0.2+  0.5+    231005 L01  1.3-  0.3+
231004 H01  0.0   0.1+    231004 958  0.4-  0.0     231005 L01  1.0-  0.2+
231004 X09  2.6+  2.5-    231004 958  0.5-  0.1+    231005 L01  1.0-  0.3+
231004 H01  0.2+  0.1+    231004 K74  0.6-  0.1+    231005 L01  1.2-  0.2+
231004 H01  0.2+  0.1+    231004 I93  0.8-  0.1+    231005 L01  0.7-  0.1-
231004 I52  0.4+  0.2+    231004 K74  0.4-  0.3+

Ephemeris:
2023 TG                  a,e,i = 1.38, 0.32, 6                   q = 0.9344
Date    TT    R. A. (2000) Decl.     Delta      r    Elong.  Phase     V
2023 09 05    22 35 56.4 +16 36 14   0.1374  1.1352   155.9    21.3    25.2
...
2023 09 20    22 38 05.5 +18 26 38   0.06849 1.0665   153.9    24.5    23.6
...
2023 09 28    22 51 40.5 +19 25 17   0.03470 1.0332   152.9    26.3    22.1
...
2023 10 04    00 09 59.7 +21 20 08   0.01051 1.0105   161.5    18.4    19.2
2023 10 05    01 14 54.1 +21 04 51   0.0070261.0069   161.4    18.4    18.4
2023 10 06    03 40 42.4 +14 53 51   0.0047571.0034   135.6    44.2    18.3
...
2023 10 12    09 39 22.5 -16 01 45   0.02408 0.9835    51.4   127.5    25.5
...
2023 10 20    10 08 14.5 -17 30 15   0.05688 0.9612    51.0   126.4    27.2
...
2023 11 04    10 29 35.9 -17 57 12   0.1191  0.9351    58.4   115.3    27.9

M. P. C. Staff               (C) Copyright 2023 MPC           M.P.E.C. 2023-T20





More information about the Iaude mailing list